Regional Weather Roundup
Issued by NWS

Home | Current Version | Previous Version | Text Only | Print | Product List | Glossary On
Versions: 1 2 3 4 5 6 7 8 9 10 11 12 13 14 15 16 17 18 19 20 21 22 23 24 25 26 27 28 29 30 31 32 33 34 35 36 37 38 39 40 41 42 43 44 45 46 47 48 49 50
000
ASUS44 KEWX 190910
RWRTX
SOUTH TEXAS REGIONAL WEATHER ROUNDUP
NATIONAL WEATHER SERVICE AUSTIN/SAN ANTONIO TX
400 AM CDT SAT APR 19 2014

NOTE: "FAIR" INDICATED FEW OR NO CLOUDS BELOW 12,000 FEET WITH NO
SIGNIFICANT WEATHER AND/OR OBSTRUCTIONS TO VISIBILITY.

* - THESE STATIONS ARE NOT NWS OR FAA STATIONS...AND ARE NOT SUBJECT
    TO NWS AND FAA QUALITY CONTROL.

TXZ171-172-183>190-191000-
TEXAS HILL COUNTRY AND EDWARDS PLATEAU

CITY           SKY/WX    TMP DP  RH WIND       PRES   REMARKS
JUNCTION       PTCLDY    62  53  72 VRB5      30.10F
*LLANO         CLEAR     54  50  87 CALM      30.15S
BURNET         CLEAR     58  51  78 CALM      30.13F
*HORSESHOE BAY CLEAR     57  51  79 SE5       30.11F
*KERRVILLE     PTCLDY    59  54  82 CALM      30.13S
*FREDERICKSBRG CLEAR     57  52  82 SE3       30.12F
*ROCKSPRINGS   PTCLDY    61  54  77 SE7       30.12F
*BOERNE STAGE  PTCLDY    50  46  87 CALM      30.13F
*CASTROVILLE   PTCLDY    56  54  93 CALM      30.13F
HONDO          PTCLDY    60  54  80 CALM      30.12F
*UVALDE        CLOUDY    64  55  74 E5        30.10S
DEL RIO        CLOUDY    68  57  68 SE13      30.05S
LAUGHLIN AFB   PTCLDY    66  57  73 SE14      30.06S
CARRIZO SPRGS  CLEAR     61  52  72 SE3       30.07F
$$

TXZ173-191>194-202-209-217>225-228-191000-
CENTRAL AND SOUTH CENTRAL TEXAS

CITY           SKY/WX    TMP DP  RH WIND       PRES   REMARKS
GEORGETOWN     MOCLDY    54  48  82 CALM      30.12F
AUSTIN/BERGSTM MOCLDY    51  50  96 CALM      30.12S
AUSTIN/MABRY   MOCLDY    57  53  86 CALM      30.13S
*AUSTIN/EXEC   MOCLDY    57  55  94 CALM      30.13S
*LAGO VISTA    MOCLDY    60  53  75 SE5       30.13S
SAN MARCOS     PTCLDY    52  45  76 CALM      30.14S
NEW BRAUNFELS  PTCLDY    56  52  86 CALM      30.11S
RANDOLPH AFB   PTCLDY    54  52  92 N5        30.12S
PT SAN ANTONIO PTCLDY    57  54  89 NE2       30.10S
SAN ANTONIO    PTCLDY    60  55  83 CALM      30.12F
STINSON FIELD  PTCLDY    57  54  89 CALM      30.10S
*PLEASANTON    PTCLDY    55  52  91 CALM      30.12S
*LA GRANGE     PTCLDY    56  56  97 CALM      30.11R
*GIDDINGS      PTCLDY    55  52  91 CALM      30.16R
*GONZALES      PTCLDY    55  55  99 CALM      30.11S FOG
$$

TXZ163>164-176>182-195>201-210>213-226-227-235-191000-
SOUTHEAST TEXAS

CITY           SKY/WX    TMP DP  RH WIND       PRES   REMARKS
COLLEGE STN    PTCLDY    59  53  80 SE3       30.13R
*BRYAN         PTCLDY    55  53  92 CALM      30.13R
*CALDWELL      PTCLDY    54  54 100 CALM      30.15S
*CROCKETT      PTCLDY    55  55 100 CALM      30.16S FOG
*BRENHAM       PTCLDY    56  53  89 CALM      30.13S
HUNTSVILLE     PTCLDY    54  51  90 CALM      30.13S
CONROE         PTCLDY    51  50  96 CALM      30.14S
HOUSTON BUSH   PTCLDY    58  56  93 CALM      30.12F
HOUSTON HOBBY  PTCLDY    60  55  83 CALM      30.11F
*HOUSTON SW AP CLEAR     55  55  99 CALM      30.12S FOG
PEARLAND       CLEAR     56  53  90 CALM      30.13F
HOUSTON HOOKS  CLEAR     56  55  97 CALM      30.12F
ELLINGTON FLD  CLEAR     63  59  88 CALM      30.12F
SUGAR LAND     LGT RAIN  57  55  93 CALM      30.11F
*HOUSTON EXEC  CLOUDY    54  54 100 CALM      30.12F FOG
*CLEVELAND MUN CLEAR     52  51  97 CALM      30.14S FOG
*WHARTON       FOG       52  52  98 CALM      30.11F VSB 1/4
$$

TXZ214>216-236>238-191000-
THE UPPER TEXAS COAST

CITY           SKY/WX    TMP DP  RH WIND       PRES   REMARKS
*ORANGE        PTCLDY    55  55 100 CALM      30.13F FOG
PORT ARTHUR    PTCLDY    60  55  83 NE5       30.11S
GALVESTON      CLEAR     62  60  93 NW5       30.12F
ANGLETON       FOG       53  53 100 CALM      30.11S VSB 1/2
*BAY CITY      FOG       53  53  99 CALM      30.10F VSB 1/4
PALACIOS       CLEAR     55  53  93 NE5       30.10S FOG
$$

TXZ229>234-239>247-191000-
TEXAS COASTAL BEND AND RIO GRANDE PLAINS

CITY           SKY/WX    TMP DP  RH WIND       PRES   REMARKS
VICTORIA       FOG       52  51  97 NW5       30.11R VSB 1/4
*BEEVILLE      CLEAR     58  58 100 CALM      30.10R
ROCKPORT       MOCLDY    59  57  93 CALM      30.09S
*PORT ARANSAS  CLEAR     64  62  92 CALM      30.09S
*PORT LAVACA   CLEAR     56  54  93 CALM      30.09F
*INGLESIDE       N/A     61  59  95 CALM      30.09R FOG
CORPUS CHRISTI MOCLDY    58  55  90 CALM      30.09S
CORPUS NAS     MOCLDY    63  60  90 SE3       30.08F
*ROBSTOWN      MOCLDY    60  59  95 CALM      30.09F FOG
ALICE          CLOUDY    57  54  89 CALM      30.09S
KINGSVILLE NAS MOCLDY    56  54  93 NW3       30.10S
COTULLA        CLEAR     60  51  72 S3        30.09F
*FAITH RANCH   CLEAR     64  50  59 SE6       30.08S
LAREDO         CLOUDY    66  55  67 SE7       30.11S
$$

TXZ248>255-191000-
DEEP SOUTH TEXAS

CITY           SKY/WX    TMP DP  RH WIND       PRES   REMARKS
BROWNSVILLE    CLOUDY    62  61  96 CALM      30.08S
PORT ISABEL    CLOUDY    65  62  90 SE5       30.07F
*SOUTH PADRE   LGT RAIN  66  64  94 CALM      30.08S
HARLINGEN      CLOUDY    59  57  94 CALM      30.07F FOG
*HEBBRONVILLE  MOCLDY    59  56  92 SE3       30.10S
MCALLEN        CLOUDY    63  61  93 SE5       30.08F
*WESLACO       CLOUDY    62  59  89 S3        30.08S
FALFURRIAS     CLOUDY    56  53  90 CALM      30.09S
EDINBURG       CLOUDY    59  57  91 CALM      30.09S FOG
*ZAPATA        CLOUDY    65  58  77 SE7       30.07F
$$

TXZ213>215-236>238-242>244-246-247-251-254-255-191000-
CMAN STATIONS

STATION/POSITION TIME  TEMP    WIND        PRES    WAVE
                       AIR SEA DIR/SP/G            HT/PER
                 (UTC) (F)     (DEG/KT/KT) (MB)    (FT/S)
SABINE PASS      0900   61 66   50/  5/  6 1019.6
SEA RIM ST PARK  0900   62      40/  5/  5 1020.2
NORTH JETTY/GLS  0900   64 70   30/  4/  5   N/A
EAGLE POINT      0900   61 61  320/  4/  5 1019.5
MORGANS POINT    0900   64 64  260/  2/  2   N/A
MISSION/ARANSAS  0800   65     170/  3     1020.0
PORT O`CONNOR    0900          180/  1/  2   N/A
PORT ARANSAS     0900   66 67  140/  3/  4 1019.0
MALAQUITE BEACH  0900   67 69  130/  5/  7 1017.9
BAFFIN BAY       0900   66 67  120/  4/  6 1018.6
PORT ISABEL      0900   66 68  120/  3/  4 1018.6
$$

GMZ080-GMZ150>470-191000-
OFFSHORE BUOY REPORTS

STATION/POSITION TIME  TEMP    WIND        PRES    WAVE
                       AIR SEA DIR/SP/G            HT/PER
                 (UTC) (F)     (DEG/KT/KT) (MB)    (FT/S)
20 E GALVESTON   0900   66 66   40/  6/  8 1019.2    1/ 7
35 NE PT MANSFLD 0900   67 67  110/  8/ 10 1018.3    4/ 9
$$



USA.gov is the U.S. government's official web portal to all federal, state and local government web resources and services.